Regional Weather Roundup
Issued by NWS

Home | Current Version | Previous Version | Graphics & Text | Print | Product List | Glossary On
Versions: 1 2 3 4 5 6 7 8 9 10 11 12 13 14 15 16 17 18 19 20 21 22 23 24 25 26 27 28 29 30 31 32 33 34 35 36 37 38 39 40 41 42 43 44 45 46 47 48 49 50
000
ASUS43 KMKX 022100
RWRWI

WISCONSIN REGIONAL WEATHER ROUNDUP
NATIONAL WEATHER SERVICE MILWAUKEE/SULLIVAN WI
400 PM CDT MON MAY 02 2016

NOTE: "FAIR" INDICATES FEW OR NO CLOUDS BELOW 12,000 FEET WITH NO
SIGNIFICANT WEATHER AND/OR OBSTRUCTIONS TO VISIBILITY.

WIZ001-002-006>008-014>016-023>028-022200-
NORTHWEST WISCONSIN

CITY           SKY/WX    TMP DP  RH WIND       PRES   REMARKS
SUPERIOR ARPT  SUNNY     64  37  36 NE7       30.02F
ASHLAND        SUNNY     64  38  38 NE9       30.04F
HAYWARD        MOSUNNY   63  27  25 E3        30.01F
SIREN          PTSUNNY   66  29  24 SE6       30.02F
CUMBERLAND     SUNNY     63  28  27 CALM      30.02F
RICE LAKE      MOSUNNY   64  29  27 W5        30.04F
CHETEK         PTSUNNY   61  38  42 N3        30.03F
LADYSMITH      SUNNY     64  33  32 CALM      30.05F
EAU CLAIRE     NOT AVBL
MENOMONIE      PTSUNNY   70  35  27 SW3       30.03F
NEW RICHMOND   MOSUNNY   64  30  27 N3        30.04F
OSCEOLA        SUNNY     66  31  26 W5        30.05F
$$

WIZ003>005-009-010-017-018-022200-
NORTH CENTRAL WISCONSIN

CITY           SKY/WX    TMP DP  RH WIND       PRES   REMARKS
MANITOWISH WTR CLOUDY    60  31  34 CALM      30.02F
ARBOR VITAE    PTSUNNY   61  30  31 NW5       30.02F
WOODRUFF       PTSUNNY   61  30  31 NW5       30.02F
RHINELANDER    PTSUNNY   63  29  27 CALM      30.02F
EAGLE RIVER    PTSUNNY   62  25  24 NW8       30.01F
LAND O LAKES   PTSUNNY   60  27  28 N8        30.03F
PHILLIPS       PTSUNNY   62  33  33 SW5       30.02F
TOMAHAWK       PTSUNNY   59  29  32 CALM      30.03F
MEDFORD        PTSUNNY   61  36  39 SW7       30.03F
MERRILL        CLOUDY    62  35  36 W5        30.03F
$$

WIZ029-030-035-036-043>047-022200-
CENTRAL WISCONSIN

CITY           SKY/WX    TMP DP  RH WIND       PRES   REMARKS
WAUSAU         PTSUNNY   63  32  31 SW5       30.01F
MOSINEE        NOT AVBL
MARSHFIELD     PTSUNNY   61  31  32 CALM      30.03F
STEVENS POINT  CLOUDY    62  31  31 N6        30.03F
WAUPACA        SUNNY     66  27  23 CALM      30.03F
WAUTOMA        MOSUNNY   64  29  26 CALM      30.02F
WISC RAPIDS    SUNNY     62  27  26 N5        30.04F
CAMP DOUGLAS   NOT AVBL
$$

WIZ011>013-019>022-031-037>040-048>050-022200-
NORTHEAST WISCONSIN

CITY           SKY/WX    TMP DP  RH WIND       PRES   REMARKS
ANTIGO         PTSUNNY   60  33  35 CALM      30.03F
SHAWANO        MOSUNNY   66  30  26 E7        30.02F
OCONTO         SUNNY     61  32  32 SE14      30.03F
STURGEON BAY   SUNNY     57  36  44 SE12      30.06F
GREEN BAY      SUNNY     63  32  31 SE7       30.03F
MANITOWOC      NOT AVBL
APPLETON       MOSUNNY   63  27  25 N8        30.02F
CLINTONVILLE   SUNNY     64  30  27 SE6       30.01F
OSHKOSH        SUNNY     62  32  32 SE6       30.03F
$$

WIZ032>034-041-042-053>061-022200-
SOUTHWEST WISCONSIN

CITY           SKY/WX    TMP DP  RH WIND       PRES   REMARKS
LA CROSSE      MOSUNNY   68  36  30 W9        30.03F
SPARTA         PTSUNNY   63  33  32 CALM      30.05F
VIROQUA        PTSUNNY   63  32  32 CALM      30.05F
BOSCOBEL       CLOUDY    66  33  29 VRB7      30.04F
PRAIRIE DU CHI CLOUDY    61  33  34 CALM      30.05F
PLATTEVILLE    PTSUNNY   60  37  43 E8        30.04F
$$

WIZ056-057-062-063-064-067-068-022200-
SOUTH CENTRAL WISCONSIN

CITY           SKY/WX    TMP DP  RH WIND       PRES   REMARKS
REEDSBURG      CLOUDY    60  34  37 CALM      30.04F
BARABOO/DELLS  PTSUNNY   63  29  28 CALM      30.03F
LONE ROCK      NOT AVBL
MINERAL POINT  CLOUDY    61  32  33 N5        30.04F
MADISON        PTSUNNY   61  33  35 N7        30.03F
MIDDLETON      PTSUNNY   63  36  35 E7G22     30.04F
WATERTOWN      CLOUDY    60  35  40 NE7       30.03F
MONROE         CLOUDY    59  36  41 N12       30.04F
JANESVILLE     CLOUDY    61  34  36 MISG      30.03F
$$

WIZ051-052-058>065-066-070>072-022200-
SOUTHEAST WISCONSIN

CITY           SKY/WX    TMP DP  RH WIND       PRES   REMARKS
MILWAUKEE      MOSUNNY   56  36  47 NE12      30.04F
WAUKESHA       MOSUNNY   57  30  35 NE17      30.04F
MILWAUKEE/TIMM NOT AVBL
RACINE         SUNNY     57  34  41 N15       30.05F
BURLINGTON     SUNNY     60  30  32 NE13      30.03F
KENOSHA        SUNNY     60  36  40 NE13      30.04F
FOND DU LAC    SUNNY     63  35  35 NE9       30.03F
SHEBOYGAN      SUNNY     59  36  42 NE14      30.04F
WEST BEND      MOSUNNY   59  32  36 E12       30.03F
JUNEAU         PTSUNNY   58  35  42 NE8       30.04F
$$

LSZ147-162-022200-
LAKE SUPERIOR

STATION/POSITION TIME  TEMP    WIND        PRES    WAVE
                       AIR SEA DIR/SP/G            HT/PER
                 (UTC) (F)     (DEG/KT/KT) (MB)    (FT/S)
W MID LAKE BUOY  1950   40 37  170/  2/  2 1019.3F   0
DEVILS ISLAND    2000   53     130/  5/  7 1018.1F
SAXON HARBOR     2040   47      CALM  /  2 1017.6F
$$

LMZ867-665-643>646-022200-
LAKE MICHIGAN

STATION/POSITION TIME  TEMP    WIND        PRES    WAVE
                       AIR SEA DIR/SP/G            HT/PER
                 (UTC) (F)     (DEG/KT/KT) (MB)    (FT/S)
CHAMBERS ISLAND  2000   57      60/  7/ 10 1017.6F
N MID LAKE BUOY  1950   42 40  230/  4/  4 1017.8F   0
NORTHPORT PIER   2000   47     140/  9/ 10 1017.3F
KEWAUNEE LAKESHO 2000   46     120/  3/  5 1017.5F
SHEBOYGAN LAKESH 2000   47      40/  7/  8 1018.6F
PORT WASHINGTON  2000   51      40/  7/ 10 1018.6F
S MID LAKE BUOY  1950   42 41  310/  2/  4 1018.0F   1/ 3
KENOSHA   LAKESH 2000   47      40/ 11/ 13 1017.6F
$$

TC  - TEMPERATURE IN CELSIUS
VSB - VISIBILITY IN STATUTE MILES
WCI - WIND CHILL INDEX
HX  - HEAT INDEX





USA.gov is the U.S. government's official web portal to all federal, state and local government web resources and services.